Location: Newark
(45.4422°N, 16.2769°E)
Time: 13:57:37
(UTC+00:00)

Vanguard 2 - Pass Details

Date: 15 December 2019
Orbit: 553 x 2938 km, 32.9° (Epoch: 28 January)

Event Time Altitude Azimuth Distance (km) Brightness Sun altitude
Rises 05:12:42 0° 276° (W) 6,697 - -12.5°
Exits shadow 05:17:04 - 268° (W) 5,937 11.5 -11.8°
Reaches altitude 10° 05:18:07 10° 266° (W) 5,763 11.4 -11.6°
Maximum altitude 05:31:18 27° 218° (SW) 4,312 11.2 -9.5°
Drops below altitude 10° 05:42:47 10° 169° (SSE) 4,954 12.2 -7.7°
Sets 05:47:03 0° 157° (SSE) 5,629 12.8 -7.0°
